User: anonymous   Login
Location: Cabeza de los Veneras
(40.2000°N, 5.2000°W)
Time: 19:32:59
(UTC+00:00)
Language:

Cosmos 1605 Rocket - Orbit

View from above orbital plane
View from above orbital plane
View from above satellite
View from above satellite

Ground track
Ground track

The orbit data is extracted from the following two-line orbital elements,

1 15360U 84109B   24166.46688118  .00000150  00000-0  13520-3 0  9998
2 15360  82.9394 310.3293 0042671 107.5163 253.0664 13.76926486992790
Epoch (UTC): 14 June 2024 11:12:18
Eccentricity: 0.0042671
inclination: 82.9394°
perigee height: 943 km
apogee height: 1006 km
right ascension of ascending node: 310.3293°
argument of perigee: 107.5163°
revolutions per day: 13.76926486
mean anomaly at epoch: 253.0664°
orbit number at epoch: 99279

The dashed part of the orbit path shows where the satellite is in the earth's shadow,  

DLR